Tracking 19248 objects as of 26-Sep-2018
HD Live streaming from Space Station
objects crossing your sky now

FENGYUN 1C DEB

Track FENGYUN 1C DEB now!
10-day predictions


NORAD ID: 36279
Int'l Code: 1999-025DXG
Perigee: 808.5 km
Apogee: 900.6 km
Inclination: 98.7 °
Period: 101.9 minutes
Semi major axis: 7225 km
RCS: 0.0096 m2 (small)
Launch date: May 10, 1999
Source: People's Republic of China (PRC)
Launch site: Taiyaun Space Center, China (TSC)

Note: This is SATELLITE DEBRIS
aabbcc
Your satellite tracking list
Your tracking list is empty




NASA's NSSDC Master Catalog

Two Line Element Set (TLE):
1 36279U 99025DXG 18267.94536213 +.00000012 +00000-0 +28613-4 0  9996
2 36279 098.6892 320.8942 0063687 046.3376 314.3051 14.13498516517943
Source of the keplerian elements: AFSPC